Weather History for Baltimore Martin, MD

Change the Weather History Date:

Monday, May 6, 2013

  Actual Average Record
Temperature  
Mean Temperature 55 °F -  
Max Temperature 64 °F 68 °F 86 °F (2000)
Min Temperature 46 °F 52 °F 44 °F (2011)
Degree Days  
Heating Degree Days 10    
Growing Degree Days 5 (Base 50)    
Moisture  
Dew Point 50 °F    
Average Humidity 85    
Maximum Humidity 100    
Minimum Humidity 71    
Precipitation  
Precipitation 0.00 in - - ()
Sea Level Pressure  
Sea Level Pressure 30.18 in    
Wind  
Wind Speed 5 mph (NE)    
Max Wind Speed 10 mph    
Max Gust Speed 17 mph    
Visibility 8 miles    
Events      
Averages and records for this station are not official NWS values.
T = Trace of Precipitation, MM = Missing Value Source: NWS Daily Summary

Daily Weather History Graph

Daily Weather History Graph

Search for Another Location

Airport:

Trip Planner

Search our weather history database for the weather conditions in past years. The results will help you decide how hot, cold, wet, or windy it might be!

Date:

Astronomy

May. 06, 2013 Rise Set
Actual Time 6:00 AM EDT 8:04 PM EDT
Civil Twilight 5:31 AM EDT 8:33 PM EDT
Nautical Twilight 4:55 AM EDT 9:09 PM EDT
Astronomical Twilight 4:16 AM EDT 9:48 PM EDT
Moon 4:00 AM EDT (5/6) 5:02 PM EDT (5/6)
Length of Visible Light 15h 02m
Length of Day
14h 03m
Waning Crescent, 11% of the Moon is Illuminated
May 6
Waning Crescent
May 9
New
May 18
First Quarter
May 25
Full
May 31
Last Quarter

Hourly Weather History & Observations

Time (EDT) Temp. Windchill Dew Point Humidity Pressure Visibility Wind Dir Wind Speed Gust Speed Precip Events Conditions
12:00 AM 51.8 °F - 44.6 °F 76% 30.22 in 10.0 mi East 5.8 mph - N/A   Clear
12:21 AM 51.8 °F - 44.6 °F 76% 30.22 in 10.0 mi East 4.6 mph - N/A   Clear
12:39 AM 51.8 °F - 42.8 °F 71% 30.22 in 10.0 mi East 6.9 mph - N/A   Clear
1:00 AM 51.8 °F - 42.8 °F 71% 30.21 in 10.0 mi ENE 6.9 mph - N/A   Clear
1:21 AM 51.8 °F - 42.8 °F 71% 30.20 in 10.0 mi ENE 5.8 mph - N/A   Clear
1:39 AM 51.8 °F - 44.6 °F 76% 30.21 in 10.0 mi ENE 3.5 mph - N/A   Clear
2:00 AM 50.0 °F - 44.6 °F 82% 30.20 in 10.0 mi ENE 4.6 mph - N/A   Clear
2:39 AM 50.0 °F - 44.6 °F 82% 30.20 in 10.0 mi NNE 3.5 mph - N/A   Clear
3:00 AM 48.2 °F - 44.6 °F 87% 30.19 in 10.0 mi Calm Calm - N/A   Clear
3:21 AM 48.2 °F - 44.6 °F 87% 30.20 in 10.0 mi Calm Calm - N/A   Scattered Clouds
3:39 AM 48.2 °F - 44.6 °F 87% 30.19 in 10.0 mi NW 4.6 mph - N/A   Mostly Cloudy
4:00 AM 46.4 °F - 42.8 °F 87% 30.19 in 10.0 mi Calm Calm - N/A   Scattered Clouds
4:21 AM 46.4 °F - 42.8 °F 87% 30.20 in 10.0 mi Calm Calm - N/A   Mostly Cloudy
4:39 AM 46.4 °F 45.2 °F 42.8 °F 87% 30.20 in 10.0 mi North 3.5 mph - N/A   Mostly Cloudy
5:00 AM 46.4 °F - 44.6 °F 93% 30.20 in 10.0 mi Calm Calm - N/A   Overcast
5:21 AM 46.4 °F - 44.6 °F 93% 30.20 in 10.0 mi Calm Calm - N/A   Overcast
5:36 AM 46.4 °F 45.2 °F 44.6 °F 93% 30.20 in 10.0 mi North 3.5 mph - N/A   Mostly Cloudy
5:50 AM 48.2 °F - 46.4 °F 93% 30.20 in 10.0 mi NNE 9.2 mph - N/A   Overcast
6:55 AM 48.2 °F - 46.4 °F 93% 30.21 in 7.0 mi NNE 8.1 mph - N/A   Overcast
7:50 AM 50.0 °F - 48.2 °F 94% 30.22 in 5.0 mi NNE 9.2 mph - N/A   Overcast
8:45 AM 50.0 °F - 50.0 °F 100% 30.21 in 2.5 mi NNE 8.1 mph - N/A   Overcast
9:45 AM 53.6 °F - 50.0 °F 88% 30.20 in 3.0 mi North 4.6 mph - N/A   Overcast
10:45 AM 57.2 °F - 51.8 °F 82% 30.20 in 3.0 mi NE 4.6 mph - N/A   Overcast
11:50 AM 57.2 °F - 53.6 °F 88% 30.20 in 3.0 mi NE 4.6 mph - N/A   Overcast
12:45 PM 59.0 °F - 55.4 °F 88% 30.18 in 7.0 mi ENE 9.2 mph 16.1 mph N/A   Overcast
1:45 PM 62.6 °F - 55.4 °F 77% 30.16 in 5.0 mi ENE 8.1 mph 17.3 mph N/A   Haze
2:47 PM 64.4 °F - 55.4 °F 73% 30.15 in 5.0 mi ENE 8.1 mph 16.1 mph N/A   Haze
3:45 PM 64.4 °F - 57.2 °F 77% 30.12 in 7.0 mi ENE 10.4 mph - N/A   Overcast
4:55 PM 64.4 °F - 57.2 °F 77% 30.11 in 7.0 mi ENE 5.8 mph - N/A   Overcast
5:45 PM 64.4 °F - 57.2 °F 77% 30.11 in 7.0 mi East 8.1 mph - N/A   Overcast
6:45 PM 64.4 °F - 59.0 °F 83% 30.11 in 10.0 mi East 10.4 mph - N/A   Mostly Cloudy
7:45 PM 62.6 °F - 59.0 °F 88% 30.12 in 10.0 mi East 10.4 mph - N/A   Mostly Cloudy
8:55 PM 62.6 °F - 59.0 °F 88% 30.13 in 10.0 mi East 9.2 mph - N/A   Overcast
9:45 PM 62.6 °F - 59.0 °F 88% 30.13 in 10.0 mi East 10.4 mph 16.1 mph N/A   Overcast
10:24 PM 60.8 °F - 57.2 °F 88% 30.13 in 10.0 mi ENE 8.1 mph - N/A   Overcast
10:42 PM 60.8 °F - 57.2 °F 88% 30.13 in 10.0 mi East 10.4 mph 16.1 mph N/A   Overcast
11:03 PM 60.8 °F - 57.2 °F 88% 30.12 in 10.0 mi ENE 5.8 mph - N/A   Overcast
11:24 PM 60.8 °F - 59.0 °F 94% 30.12 in 10.0 mi NE 5.8 mph - N/A   Overcast
11:42 PM 60.8 °F - 57.2 °F 88% 30.12 in 10.0 mi ENE 9.2 mph - N/A   Overcast